Lapse_Rate
6.8 6.4 6.6 6.5 6.6 6.6 6.6 6.7 6.8 6.7 6.8 7.0 6.8 6.4 6.4 6.1 6.3 6.3 6.4 6.3 6.2 6.0 6.0 5.9 6.0 6.0 5.9 5.7 5.5 5.4 5.4 5.5 5.6 5.6 5.5 5.3 5.1 4.9 4.9 5.1 5.2 5.3 5.1
7.0 6.8 6.4 6.7 6.8 6.5 6.5 6.7 6.9 6.4 6.4 7.0 7.3 6.9 6.5 6.1 6.4 6.1 6.3 6.1 6.3 6.1 6.0 5.9 6.0 6.0 6.0 5.9 5.6 5.5 5.4 5.4 5.5 5.6 5.7 5.7 5.3 5.1 5.1 5.0 4.9 5.1 5.3
7.2 7.0 6.6 6.5 6.8 6.9 6.8 6.7 6.8 6.8 6.6 6.6 6.9 6.8 6.3 6.4 6.7 6.5 6.3 6.4 6.5 6.4 6.2 6.1 6.0 6.1 6.2 6.1 5.7 5.5 5.2 5.2 5.3 5.5 5.7 5.9 5.6 5.3 5.2 5.2 5.1 5.0 5.0
7.7 7.1 6.7 6.7 6.9 7.1 6.9 6.6 6.6 6.6 6.6 6.6 6.9 7.1 6.9 7.2 7.3 6.8 6.6 6.3 6.4 6.4 6.3 6.3 6.4 6.0 6.1 6.2 5.9 5.6 5.1 5.2 5.0 5.3 5.7 5.8 5.7 5.4 5.3 5.3 5.3 5.2 5.3
8.2 8.1 7.1 6.9 7.1 6.8 6.7 6.6 6.7 6.6 6.4 6.5 6.7 7.0 6.6 6.6 6.4 6.7 7.2 6.5 6.4 6.5 6.0 6.1 6.3 6.5 6.2 6.1 6.1 5.8 5.8 5.5 4.9 5.3 5.6 5.9 5.9 5.9 5.5 5.2 5.2 5.1 5.2
9.3 9.2 8.5 7.5 7.1 6.9 6.5 6.7 6.5 6.5 6.4 6.2 6.5 6.6 6.7 6.5 6.3 6.4 6.7 6.7 6.1 6.2 6.1 6.2 6.6 6.6 6.1 6.3 6.3 6.0 5.8 5.8 5.3 5.2 5.4 5.7 5.8 5.8 5.9 5.6 5.2 5.2 5.2
9.3 9.1 7.6 6.7 6.2 6.1 6.1 6.2 6.5 6.4 6.4 6.3 6.3 6.4 6.6 6.4 6.2 6.3 6.4 6.7 6.2 6.4 6.1 6.1 6.3 6.3 6.3 6.1 6.3 6.2 5.8 5.8 5.9 5.3 5.3 5.5 5.5 5.5 5.5 5.8 5.8 5.5 5.4
8.3 9.0 7.4 6.5 6.0 5.8 5.6 5.5 5.6 6.0 6.2 6.3 6.3 6.6 6.9 6.7 6.5 6.3 6.4 6.6 6.2 6.1 5.8 6.0 6.7 6.2 6.3 6.4 6.1 6.1 5.8 5.6 5.7 5.8 5.5 5.6 5.7 5.3 5.3 5.6 5.5 5.8 5.6
7.6 8.5 7.6 6.9 6.3 5.9 6.0 5.9 6.0 5.7 5.7 6.0 6.3 6.4 6.6 6.7 6.7 6.5 6.3 6.3 6.3 6.3 5.8 5.7 6.3 6.2 6.0 6.1 6.3 6.1 5.7 5.6 5.5 5.8 5.8 5.8 5.9 5.6 5.4 5.6 5.5 5.6 5.8
6.9 7.6 7.3 6.8 6.6 6.5 6.1 6.3 6.5 6.0 5.8 5.9 6.4 6.6 6.7 6.8 6.9 6.8 6.4 6.4 6.3 6.1 6.2 5.9 5.9 6.0 6.3 5.9 5.9 6.1 6.1 5.6 5.7 5.7 5.6 5.6 5.9 5.8 5.6 5.3 5.8 5.6 5.6
6.1 6.6 6.9 6.8 6.8 7.0 6.8 6.5 6.7 6.5 6.6 6.8 6.5 6.7 6.9 6.9 7.0 7.1 7.1 6.8 6.5 6.0 6.0 6.1 5.8 5.7 6.1 6.0 6.0 5.8 6.0 6.1 6.0 5.7 5.4 5.5 5.5 5.5 5.6 5.5 5.4 5.8 5.6
6.7 6.9 7.0 7.1 7.6 7.7 7.6 6.7 6.2 6.3 6.4 6.5 7.0 7.0 6.7 6.9 7.0 7.1 7.1 7.1 6.9 6.6 6.1 5.9 5.7 5.5 5.5 5.7 5.7 5.9 5.9 6.0 6.2 6.2 6.0 5.9 5.7 5.4 5.4 5.5 5.6 5.5 5.6
6.9 7.4 7.6 7.9 8.0 7.8 7.7 7.1 6.5 6.0 6.2 6.5 6.4 6.9 7.3 7.1 6.9 7.0 7.1 7.1 7.2 6.9 6.6 6.0 5.7 5.9 5.7 5.8 5.5 5.8 6.1 6.1 6.1 6.2 6.2 6.1 5.8 5.8 5.2 5.4 5.1 5.5 5.4
7.4 7.6 8.0 8.1 7.8 7.4 7.2 7.6 7.0 6.6 6.3 6.0 6.5 6.9 6.9 6.9 7.0 6.8 7.2 7.0 7.0 7.0 6.7 6.4 6.0 5.9 6.1 5.7 5.4 5.6 5.7 6.2 6.0 6.2 6.2 6.2 6.0 6.1 6.0 5.3 5.2 5.3 5.3
7.0 7.3 7.5 7.6 7.5 7.1 7.0 7.3 7.6 7.1 6.7 6.5 6.5 6.8 7.2 7.2 7.1 7.0 7.4 7.2 7.0 7.0 6.9 6.6 6.3 6.0 6.1 6.1 5.6 5.4 5.8 6.0 5.9 5.9 6.1 6.1 6.2 6.1 5.8 5.7 5.3 5.1 5.3
7.4 7.1 7.3 7.6 7.6 7.4 7.1 6.8 7.3 7.3 7.1 6.8 6.7 6.9 7.0 7.2 7.4 7.4 7.3 7.5 7.2 7.1 6.9 6.7 6.4 6.3 6.1 6.3 6.2 6.1 5.8 5.5 5.6 6.1 6.5 6.3 6.4 6.1 6.1 5.8 5.7 5.4 5.4
6.0 7.1 7.7 7.9 7.8 7.9 7.8 7.4 6.9 7.1 7.2 7.1 6.9 6.9 6.9 7.2 7.3 7.6 7.4 7.4 7.3 7.1 7.0 6.8 6.7 6.4 6.2 6.4 6.6 6.4 6.1 6.1 6.1 6.1 6.2 6.2 6.6 6.4 6.2 6.2 6.0 5.6 5.6
5.3 6.1 6.9 7.8 8.3 8.2 8.2 7.9 7.5 6.9 6.9 7.0 7.1 7.0 7.0 7.1 7.1 7.1 7.3 7.2 7.1 7.0 7.0 6.8 6.8 6.6 6.5 6.4 6.4 6.4 6.3 6.2 6.1 6.0 6.0 6.0 6.1 6.4 6.3 6.0 5.7 6.0 5.3
4.0 4.3 5.4 6.7 7.4 7.5 7.7 7.6 7.0 7.0 6.9 6.9 7.0 6.9 6.9 6.9 6.9 6.9 6.9 6.8 6.6 6.8 6.9 6.8 6.6 6.5 6.6 6.6 6.7 6.6 6.4 6.4 6.3 6.3 6.3 6.2 6.1 6.2 6.3 6.0 5.9 5.9 5.7
3.9 3.8 4.3 5.7 6.2 6.9 6.8 7.1 6.4 6.1 6.5 6.6 6.6 6.9 6.8 6.8 6.7 6.3 6.0 6.3 6.5 6.8 6.9 6.8 6.5 6.6 6.6 6.6 6.7 6.8 6.5 6.4 6.4 6.4 6.2 6.4 6.0 6.0 6.1 6.0 6.0 5.7 6.1
3.3 3.8 4.1 4.7 5.4 6.4 6.7 6.9 7.2 7.1 6.2 6.0 5.5 5.6 6.5 6.3 5.8 5.9 5.8 5.8 6.3 6.6 6.6 6.8 6.7 6.8 6.7 6.6 6.5 6.5 6.8 6.4 6.3 6.1 6.0 5.8 6.0 5.9 6.0 6.2 6.2 5.8 5.8
3.9 3.7 3.7 4.5 4.8 5.2 5.4 5.6 6.3 6.7 6.8 6.4 6.0 5.7 5.3 5.2 5.7 5.8 5.9 5.7 6.1 6.6 6.3 6.4 6.6 6.6 6.5 6.3 6.3 6.3 6.1 6.2 5.8 5.9 5.5 5.8 6.0 6.0 6.1 5.6 5.6 5.7 5.7
4.1 4.5 4.6 4.4 4.3 5.1 5.3 5.2 5.8 6.5 6.4 6.4 6.4 6.4 6.2 5.8 5.9 5.7 6.0 5.9 5.6 6.0 5.8 6.5 6.0 6.3 5.8 6.1 5.7 5.6 5.6 5.8 5.9 5.5 5.5 5.7 5.5 5.5 5.6 5.6 5.8 5.8 5.4
4.3 4.3 4.5 4.7 5.1 5.1 5.1 5.4 5.2 5.6 5.8 6.2 6.5 6.4 6.4 6.6 6.4 6.6 6.3 6.0 6.4 6.4 6.2 6.1 6.1 6.4 6.1 5.9 5.7 5.4 5.4 5.5 5.5 5.8 5.6 5.3 5.2 5.1 5.3 5.9 5.8 6.0 5.8
4.4 4.5 4.7 4.7 4.8 5.1 5.0 5.6 5.2 5.2 5.2 5.4 5.9 6.5 6.6 6.7 6.7 6.8 6.8 6.6 6.6 6.6 6.6 6.5 6.1 6.1 5.9 5.7 5.9 5.8 5.8 5.6 5.6 5.7 5.8 5.7 5.8 5.9 5.8 5.8 5.6 5.7 6.1
4.4 4.6 4.7 4.7 5.1 5.2 5.5 5.2 5.1 5.4 5.3 5.4 5.5 5.6 5.7 5.9 6.1 6.3 6.5 6.6 6.7 6.5 6.5 6.5 6.4 6.5 6.3 6.3 6.0 6.0 6.0 6.1 6.1 6.0 6.2 6.0 5.8 5.5 5.5 5.5 5.2 5.2 5.3
Wind_Speed
12 21 18 16 15 15 15 13 13 9 10 8 6 3 4 4 5 13 19 22 22 23 19 14 13 13 9 6 9 4 7 2 3 4 3 3 3 5 7 8 10 19 18
8 19 18 16 13 16 17 15 13 13 8 8 5 4 4 3 7 13 20 24 23 22 20 17 13 12 7 6 6 6 3 2 5 4 3 1 3 2 4 8 10 12 13
11 14 18 15 14 10 13 16 16 16 12 11 6 5 3 0 4 6 7 14 22 25 22 20 17 13 13 7 7 7 6 5 3 11 4 3 4 2 2 4 5 9 10
7 12 16 15 12 10 11 13 13 17 14 15 13 13 11 9 5 5 6 10 17 20 21 22 21 17 15 9 8 10 5 5 8 2 5 1 5 3 1 2 4 6 6
11 10 15 18 17 13 12 12 12 13 13 16 15 12 12 10 7 4 9 10 14 18 20 23 24 19 14 14 12 8 9 6 6 7 3 2 3 3 3 3 3 2 4
13 12 10 4 12 12 10 12 13 14 14 15 15 17 15 12 7 5 9 9 7 9 12 16 19 20 17 13 13 14 10 7 6 7 5 4 4 4 3 2 3 6 4
19 19 20 18 18 9 4 11 12 13 14 16 16 16 15 14 13 7 9 10 8 7 11 14 13 13 16 17 17 11 12 10 8 9 9 5 5 3 4 4 3 3 4
19 19 17 15 16 17 17 15 9 11 13 16 16 15 17 9 9 9 5 9 8 10 15 15 15 16 15 14 16 12 9 11 9 9 7 8 7 4 4 4 4 2 3
21 21 19 17 16 16 16 14 15 14 7 16 12 13 14 13 12 13 8 5 8 8 12 16 13 16 19 17 15 9 12 11 11 12 10 7 5 6 5 5 4 5 5
23 21 19 18 16 15 15 15 15 15 15 9 10 10 13 13 12 10 12 14 7 6 11 12 13 13 16 18 14 12 10 12 9 10 12 11 7 6 6 5 4 4 5
21 19 18 18 17 15 15 15 16 16 16 14 10 11 11 13 13 11 12 12 11 7 9 13 14 13 14 14 12 13 13 14 13 13 13 16 14 9 7 5 5 6 4
19 18 18 19 19 20 19 15 15 16 14 15 15 14 11 12 13 13 12 11 12 10 10 9 13 14 14 15 16 16 15 15 16 15 15 16 11 14 13 8 10 10 6
18 18 18 18 18 18 17 18 15 14 14 15 15 15 14 12 13 12 12 13 13 12 10 13 12 14 16 16 17 18 17 17 18 17 16 17 15 15 12 13 12 9 9
18 16 15 15 13 14 14 15 17 15 15 14 14 14 13 12 14 15 14 13 13 14 14 13 14 13 16 17 17 17 17 18 17 18 18 17 17 18 17 14 16 13 10
17 16 15 13 14 13 14 14 13 15 15 15 14 14 14 15 16 15 15 15 14 14 14 14 14 15 14 13 17 18 19 18 18 18 18 18 19 21 20 13 16 15 12
18 16 16 15 15 16 14 14 14 15 14 15 15 14 15 14 15 15 16 15 15 13 14 14 14 14 11 17 20 20 16 19 19 18 17 18 18 20 21 21 19 18 16
17 19 18 16 14 14 14 13 13 14 14 13 14 14 14 12 12 15 16 15 15 14 15 16 16 16 15 17 23 24 17 17 18 18 16 15 14 17 18 18 21 21 22
18 17 15 17 16 15 14 13 12 12 12 13 13 12 12 12 13 12 15 13 12 14 15 16 16 16 15 17 20 23 23 17 18 18 18 18 18 18 19 21 19 19 20
14 13 15 16 15 14 13 13 10 10 10 10 11 12 11 11 10 10 8 9 10 9 11 12 13 15 15 16 19 17 17 18 18 17 17 18 19 21 21 20 22 21 20
10 10 16 16 12 14 13 10 10 9 11 11 10 10 9 9 9 7 7 5 5 9 7 9 9 12 14 14 18 16 12 15 14 16 16 17 21 21 20 20 21 20 20
9 7 13 13 13 13 11 9 11 12 12 11 9 9 8 8 8 6 5 7 6 3 5 6 6 7 9 9 12 13 11 11 12 12 11 12 18 23 20 24 22 24 21
8 4 12 11 11 12 11 12 15 13 12 12 11 11 10 9 10 10 9 11 10 9 8 8 5 4 6 9 10 14 17 13 11 14 11 13 17 20 23 20 27 27 17
6 1 8 10 13 13 10 15 17 14 12 14 14 14 13 14 13 14 13 11 10 9 8 7 7 8 9 10 11 12 11 13 9 9 12 15 14 15 15 21 26 22 17
9 10 10 11 14 15 15 14 15 15 13 14 15 14 14 13 13 11 11 11 10 7 9 8 8 8 8 10 10 9 9 10 7 8 10 11 15 15 16 13 15 15 17
7 8 9 10 11 13 15 12 14 15 13 14 14 14 12 13 11 9 10 9 11 11 9 9 7 8 10 12 17 13 9 8 9 8 9 10 10 11 12 12 14 13 13
7 9 10 11 11 13 14 16 13 15 14 12 11 11 9 9 9 8 8 13 12 16 21 17 14 7 15 22 22 18 16 19 8 2 6 8 9 11 12 12 12 10 11
Wind_Direction
174 177 178 173 167 159 165 162 154 160 140 137 148 146 147 121 142 155 155 161 167 169 168 166 172 168 156 166 161 140 143 150 142 105 65 27 160 164 168 175 158 163 176
179 171 169 165 176 166 167 163 164 166 152 159 160 161 154 135 163 177 175 166 171 176 171 165 170 171 154 159 161 146 129 137 162 139 109 105 325 284 214 183 183 188 173
174 160 166 166 163 164 160 165 171 169 160 149 155 141 127 249 130 191 192 191 173 173 178 172 171 170 167 172 171 158 154 150 211 159 147 138 213 161 233 213 195 183 187
166 135 156 158 156 177 164 169 171 164 164 160 168 176 186 199 201 177 190 188 186 179 177 176 179 177 173 173 175 172 159 143 183 207 220 182 147 173 238 266 208 199 188
172 142 154 162 174 164 165 180 180 175 151 169 167 174 187 197 200 160 178 197 197 189 190 182 180 184 175 173 172 167 173 179 175 195 181 188 211 176 140 204 232 254 221
61 52 62 103 174 173 171 172 179 181 162 175 178 182 190 194 194 181 179 193 195 198 187 198 192 192 178 175 177 180 183 178 183 203 199 187 176 200 181 147 186 203 237
54 50 45 37 37 39 185 180 184 182 170 177 179 189 195 193 194 186 192 183 186 193 198 191 191 199 197 184 182 184 192 190 198 199 213 210 209 181 189 160 198 183 214
19 44 44 43 38 32 27 23 348 184 185 186 187 187 194 200 204 196 190 196 193 189 201 200 186 190 194 196 193 197 200 198 204 212 212 215 215 202 196 189 153 210 186
8 19 25 27 27 22 25 20 4 3 197 208 197 195 201 204 207 215 211 189 198 188 195 192 194 187 189 195 193 202 203 205 214 219 221 223 214 214 214 210 175 168 191
1 6 11 12 18 18 12 10 10 360 351 239 201 205 208 212 212 200 205 216 204 186 186 193 196 192 190 195 189 198 202 204 211 216 223 231 230 221 222 216 209 200 185
353 357 0 359 1 11 8 -0 357 351 345 343 319 208 218 222 220 211 206 213 217 193 184 193 195 198 197 195 198 203 202 210 214 218 219 224 228 234 231 221 219 222 185
345 350 356 358 359 351 350 353 343 340 335 330 330 331 220 226 225 221 214 211 215 206 206 186 195 201 200 200 209 211 206 205 211 215 217 224 221 227 230 226 228 230 215
348 348 352 353 353 345 336 333 333 325 325 325 321 321 320 238 230 231 220 213 221 214 206 214 199 200 203 204 209 216 213 209 212 215 215 222 217 226 227 228 229 229 228
353 348 344 335 332 329 322 324 317 322 317 315 311 304 304 302 251 228 225 223 215 221 218 211 216 209 204 208 211 215 216 220 221 221 220 221 218 220 224 225 227 228 222
352 348 336 326 325 323 319 309 313 310 311 306 300 298 297 293 293 227 225 222 221 215 217 216 218 218 207 208 208 213 215 218 222 222 220 221 221 222 223 221 225 219 221
353 338 332 333 327 322 315 315 310 303 298 293 291 290 286 282 279 245 221 221 220 218 219 221 214 216 209 204 204 210 215 219 221 223 222 224 219 225 218 218 224 214 216
340 340 338 333 326 316 312 310 305 299 291 288 290 290 285 292 306 256 219 215 215 214 218 223 227 226 219 204 205 205 215 218 221 221 225 228 229 218 223 224 229 224 220
339 338 336 331 327 320 317 311 303 301 304 299 295 299 303 302 302 302 213 211 208 211 215 223 225 229 232 211 213 210 217 221 223 221 222 226 231 224 218 227 227 230 228
332 333 331 326 321 323 313 310 318 320 316 315 309 304 296 296 302 312 293 202 203 212 219 224 224 225 233 217 210 209 220 228 227 226 225 226 230 229 217 222 227 228 230
320 329 334 328 323 328 321 324 341 337 335 326 316 308 316 307 296 294 302 320 240 211 222 233 231 224 229 225 217 210 219 227 229 233 232 224 231 232 221 219 228 230 228
307 335 337 331 326 328 324 348 358 357 344 342 337 350 351 340 343 320 347 4 339 270 255 249 253 246 234 229 220 208 224 230 231 229 232 234 226 234 235 223 229 231 232
311 299 342 337 333 337 349 6 10 354 356 5 9 13 20 29 25 23 28 27 20 22 16 344 287 276 279 242 229 221 214 232 242 253 244 242 231 226 232 233 236 243 233
311 293 347 346 352 358 1 8 9 2 8 17 18 22 25 37 32 32 31 35 26 26 19 21 358 343 342 345 311 285 262 241 243 254 266 280 279 269 254 246 246 235 241
5 360 354 358 8 0 3 24 14 1 18 25 23 24 29 30 37 34 40 40 30 28 27 13 12 351 350 358 343 323 309 308 280 263 270 264 264 269 270 274 252 244 244
13 12 9 356 12 4 2 4 19 14 20 27 28 27 29 31 30 38 41 41 42 34 41 9 9 11 1 348 330 312 307 290 282 298 272 264 260 260 261 260 255 248 236
20 22 19 12 15 14 7 2 19 18 19 29 27 27 27 28 30 28 31 38 36 31 32 27 29 21 11 3 356 351 339 348 319 264 280 269 267 266 261 260 251 232 223